sat.trackr.live / text

‹ back to catalog

MEXSAT 3

NORAD 39035 · 2012-075B

PAYLOAD ACTIVE UNKNOWN

§ Identity

Operator
Country
MEX
Launch date
2012-12-19
Launch site
FRGUI
Launch vehicle
Mass (kg)
RCS (m²)
79.45

Purposes: comms

External: N2YO · Heavens-Above · Gunter

§ Orbital elements

Epoch: 2026-05-25T03:42:38.615040Z

Period
1,436.10 min
Inclination
0.0391°
Eccentricity
0.0001623
Mean motion
1.00271872 rev/d
Perigee alt
35,779.7 km
Apogee alt
35,793.4 km
Semi-major
42,164.7 km
B*
0.0000e+0
RAAN
116.1512°
Arg perigee
331.5025°
Mean anomaly
95.9282°
Rev number
682

§ Raw data

MEXSAT 31 39035U 12075B   26145.15461360 -.00000028  00000+0  00000+0 0  99982 39035   0.0391 116.1512 0001623 331.5025  95.9282  1.00271872  6822

JSON: /api/v1/satellites/39035 · /tle

For live sub-satellite position, see the globe view (requires WebGL).

§ Visibility from observer

Set your observer location to see the next 7 days of passes ≥ 10°. The values pass through the URL so the page stays shareable.

No JS? Fill the form by hand. The geolocation button needs JavaScript.